Location: Unspecified
(51.3762°N, 0.0000°E)
Time: 15:27:05
(UTC+00:00)

O/OREOS (USA 219) - Pass Details

Date: 24 July 2019
Orbit: 621 x 646 km, 72.0° (Epoch: 22 May)

Event Time Altitude Azimuth Distance (km) Brightness Sun altitude
Exits shadow 02:52:18 - 170° (S) 2,768 ? -10.0°
Reaches altitude 10° 02:54:24 10° 159° (SSE) 2,030 ? -9.8°
Maximum altitude 02:58:07 25° 105° (ESE) 1,289 ? -9.4°
Drops below altitude 10° 03:01:51 10° 50° (NE) 2,032 ? -9.0°
Sets 03:04:25 0° 37° (NE) 2,941 ? -8.8°
